{"data":{"norad_id":46113,"epoch":"2026-09-19T15:15:23.684256Z","epoch_age_seconds":96486,"freshness":"FRESH","line1":"1 46113U 20056B   26262.63569079 -.00000015  00000+0  00000+0 0  9996","line2":"2 46113   0.0353 257.6156 0000097 220.8627 107.9179  1.00271743 81641","mean_motion":1.00271743,"eccentricity":9.7e-6,"inclination_deg":0.0353,"raan_deg":257.6156,"arg_perigee_deg":220.8627,"mean_anomaly_deg":107.9179,"bstar":0,"rev_number":8164,"period_min":1436.0975055555,"perigee_km":35786.197737305,"apogee_km":35787.015733334,"semimajor_km":42164.743735319,"source":"CELESTRAK","updated_at":"2026-09-20T09:00:35.295192Z"}}